Regional Weather Roundup
Issued by NWS Goodland, KS

Home | Current Version | Previous Version | Graphics & Text | Print | Product List | Glossary On
Versions: 1 2 3 4 5 6 7 8 9 10 11 12 13 14 15 16 17 18 19 20 21 22 23 24 25 26 27 28 29 30 31 32 33 34 35 36 37 38 39 40 41 42 43 44 45 46 47 48 49 50
000
ASUS43 KGLD 251508
RWRGLD

GOODLAND FORECAST AREA HOURLY WEATHER ROUNDUP
NATIONAL WEATHER SERVICE GOODLAND KS
800 AM MST THU DEC 25 2014

...OFFICIAL OBSERVATIONS...

CITY           SKY/WX    TMP DP  RH WIND       PRES   REMARKS
GOODLAND KS    PTCLDY    28  23  81 W6        29.40S
HILL CITY KS   PTCLDY    31  20  63 SE6       29.47F
IMPERIAL NEB   MOCLDY    25  20  81 N7        29.42F
MCCOOK NEB     PTCLDY    26  21  81 E8        29.42F
AKRON CO       MOCLDY    34  22  61 N13       29.40S
BURLINGTON CO  CLEAR     30  21  69 NW13      29.39F WCI  20
LIMON CO       CLEAR     26  21  81 NW5       29.40F
$$

...UNOFFICIAL OBSERVATIONS...

CITY           SKY/WX    TMP DP  RH WIND       PRES   REMARKS
COLBY KS       CLEAR     28  27  93 SW6       29.41S
GOVE KS          N/A     29  32 100 MISG        N/A
NORTON KS      CLEAR     28  19  69 SE7       29.44S
SHARON SPRINGS   N/A     32  25  76 W8          N/A
KIT CARSON CO    N/A     25  20  81 MISG        N/A
YUMA CO          N/A     26  20  79 NW5         N/A
$$


USA.gov is the U.S. government's official web portal to all federal, state and local government web resources and services.